owner,sensor,date,latitude,longitude,vertical_datum,mass_concentration_of_oxygen_in_sea_water,qcFlag 
DISL,ioos:station:DISL:CATA:1,2013-12-01T00:00:00Z,30.3085,-88.1395,2.109,11.51,1111122 
DISL,ioos:station:DISL:CATA:1,2013-12-01T00:30:00Z,30.3085,-88.1395,2.124,11.62,1111122 
DISL,ioos:station:DISL:CATA:1,2013-12-01T01:00:00Z,30.3085,-88.1395,2.131,11.43,1111122 
DISL,ioos:station:DISL:CATA:1,2013-12-01T01:30:00Z,30.3085,-88.1395,2.142,11.37,1111122 
DISL,ioos:station:DISL:CATA:1,2013-12-01T02:00:00Z,30.3085,-88.1395,2.132,11.29,1111122 
DISL,ioos:station:DISL:CATA:1,2013-12-01T02:30:00Z,30.3085,-88.1395,2.128,11.22,1111122 
DISL,ioos:station:DISL:CATA:1,2013-12-01T03:00:00Z,30.3085,-88.1395,2.115,11.17,1111122 
DISL,ioos:station:DISL:CATA:1,2013-12-01T03:30:00Z,30.3085,-88.1395,2.101,11.24,1111122 
DISL,ioos:station:DISL:CATA:1,2013-12-01T04:00:00Z,30.3085,-88.1395,2.081,11.23,1111122 
DISL,ioos:station:DISL:CATA:1,2013-12-01T04:30:00Z,30.3085,-88.1395,2.046,11.39,1111122 
DISL,ioos:station:DISL:CATA:1,2013-12-01T05:00:00Z,30.3085,-88.1395,2.027,11.31,1111122 
DISL,ioos:station:DISL:CATA:1,2013-12-01T05:30:00Z,30.3085,-88.1395,2.019,11.31,1111122 
DISL,ioos:station:DISL:CATA:1,2013-12-01T06:00:00Z,30.3085,-88.1395,1.978,11.31,1111122 
DISL,ioos:station:DISL:CATA:1,2013-12-01T06:30:00Z,30.3085,-88.1395,1.934,11.16,1111122 
DISL,ioos:station:DISL:CATA:1,2013-12-01T07:00:00Z,30.3085,-88.1395,1.89,11.14,1111122 
DISL,ioos:station:DISL:CATA:1,2013-12-01T07:30:00Z,30.3085,-88.1395,1.845,11.16,1111122 
DISL,ioos:station:DISL:CATA:1,2013-12-01T08:00:00Z,30.3085,-88.1395,1.799,11.31,1111122 
DISL,ioos:station:DISL:CATA:1,2013-12-01T08:30:00Z,30.3085,-88.1395,1.756,11.27,1111122 
DISL,ioos:station:DISL:CATA:1,2013-12-01T09:00:00Z,30.3085,-88.1395,1.712,11.13,1111122 
DISL,ioos:station:DISL:CATA:1,2013-12-01T09:30:00Z,30.3085,-88.1395,1.68,10.96,1111122 
DISL,ioos:station:DISL:CATA:1,2013-12-01T10:00:00Z,30.3085,-88.1395,1.657,10.89,1111122 
DISL,ioos:station:DISL:CATA:1,2013-12-01T10:30:00Z,30.3085,-88.1395,1.64,10.81,1111122 
DISL,ioos:station:DISL:CATA:1,2013-12-01T11:00:00Z,30.3085,-88.1395,1.626,10.74,1111122 
DISL,ioos:station:DISL:CATA:1,2013-12-01T11:30:00Z,30.3085,-88.1395,1.618,10.69,1111122 
DISL,ioos:station:DISL:CATA:1,2013-12-01T12:00:00Z,30.3085,-88.1395,1.615,10.61,1111122 
DISL,ioos:station:DISL:CATA:1,2013-12-01T12:30:00Z,30.3085,-88.1395,1.624,10.54,1111122 
DISL,ioos:station:DISL:CATA:1,2013-12-01T13:00:00Z,30.3085,-88.1395,1.627,10.52,1111122 
DISL,ioos:station:DISL:CATA:1,2013-12-01T13:30:00Z,30.3085,-88.1395,1.645,10.53,1111122 
DISL,ioos:station:DISL:CATA:1,2013-12-01T14:00:00Z,30.3085,-88.1395,1.662,10.55,1111122 
DISL,ioos:station:DISL:CATA:1,2013-12-01T14:30:00Z,30.3085,-88.1395,1.69,10.59,1111122 
DISL,ioos:station:DISL:CATA:1,2013-12-01T15:00:00Z,30.3085,-88.1395,1.709,10.61,1111122 
DISL,ioos:station:DISL:CATA:1,2013-12-01T15:30:00Z,30.3085,-88.1395,1.743,10.59,1111122 
DISL,ioos:station:DISL:CATA:1,2013-12-01T16:00:00Z,30.3085,-88.1395,1.775,10.7,1111122 
DISL,ioos:station:DISL:CATA:1,2013-12-01T16:30:00Z,30.3085,-88.1395,1.797,10.86,1111122 
DISL,ioos:station:DISL:CATA:1,2013-12-01T17:00:00Z,30.3085,-88.1395,1.828,11.14,1111122 
DISL,ioos:station:DISL:CATA:1,2013-12-01T17:30:00Z,30.3085,-88.1395,1.858,11.2,1111122 
DISL,ioos:station:DISL:CATA:1,2013-12-01T18:00:00Z,30.3085,-88.1395,1.896,11.25,1111122 
DISL,ioos:station:DISL:CATA:1,2013-12-01T18:30:00Z,30.3085,-88.1395,1.93,11.33,1111122 
DISL,ioos:station:DISL:CATA:1,2013-12-01T19:00:00Z,30.3085,-88.1395,1.956,11.77,1111122 
DISL,ioos:station:DISL:CATA:1,2013-12-01T19:30:00Z,30.3085,-88.1395,1.992,11.86,1111122 
DISL,ioos:station:DISL:CATA:1,2013-12-01T20:00:00Z,30.3085,-88.1395,2.027,11.98,1111122 
DISL,ioos:station:DISL:CATA:1,2013-12-01T20:30:00Z,30.3085,-88.1395,2.055,12.14,1111122 
DISL,ioos:station:DISL:CATA:1,2013-12-01T21:00:00Z,30.3085,-88.1395,2.104,12.15,1111122 
DISL,ioos:station:DISL:CATA:1,2013-12-01T21:30:00Z,30.3085,-88.1395,2.14,12.17,1111122 
DISL,ioos:station:DISL:CATA:1,2013-12-01T22:00:00Z,30.3085,-88.1395,2.172,12.17,1111122 
DISL,ioos:station:DISL:CATA:1,2013-12-01T22:30:00Z,30.3085,-88.1395,2.196,12.13,1111122 
DISL,ioos:station:DISL:CATA:1,2013-12-01T23:00:00Z,30.3085,-88.1395,2.229,12.0,1111122 
DISL,ioos:station:DISL:CATA:1,2013-12-01T23:30:00Z,30.3085,-88.1395,2.256,11.92,1111122 
DISL,ioos:station:DISL:CATA:1,2013-12-02T00:00:00Z,30.3085,-88.1395,2.288,11.85,1111122 
DISL,ioos:station:DISL:CATA:1,2013-12-02T00:30:00Z,30.3085,-88.1395,2.322,11.79,1111122 
DISL,ioos:station:DISL:CATA:1,2013-12-02T01:00:00Z,30.3085,-88.1395,2.34,11.73,1111122 
DISL,ioos:station:DISL:CATA:1,2013-12-02T01:30:00Z,30.3085,-88.1395,2.346,11.66,1111122 
DISL,ioos:station:DISL:CATA:1,2013-12-02T02:00:00Z,30.3085,-88.1395,2.353,11.65,1111122 
DISL,ioos:station:DISL:CATA:1,2013-12-02T02:30:00Z,30.3085,-88.1395,2.354,11.59,1111122 
DISL,ioos:station:DISL:CATA:1,2013-12-02T03:00:00Z,30.3085,-88.1395,2.344,11.5,1111122 
DISL,ioos:station:DISL:CATA:1,2013-12-02T03:30:00Z,30.3085,-88.1395,2.333,11.42,1111122 
DISL,ioos:station:DISL:CATA:1,2013-12-02T04:00:00Z,30.3085,-88.1395,2.319,11.33,1111122 
DISL,ioos:station:DISL:CATA:1,2013-12-02T04:30:00Z,30.3085,-88.1395,2.289,11.38,1111122 
DISL,ioos:station:DISL:CATA:1,2013-12-02T05:00:00Z,30.3085,-88.1395,2.253,11.35,1111122 
DISL,ioos:station:DISL:CATA:1,2013-12-02T05:30:00Z,30.3085,-88.1395,2.21,11.36,1111122 
DISL,ioos:station:DISL:CATA:1,2013-12-02T06:00:00Z,30.3085,-88.1395,2.18,11.37,1111122 
DISL,ioos:station:DISL:CATA:1,2013-12-02T06:30:00Z,30.3085,-88.1395,2.156,11.62,1111122 
DISL,ioos:station:DISL:CATA:1,2013-12-02T07:00:00Z,30.3085,-88.1395,2.104,11.66,1111122 
DISL,ioos:station:DISL:CATA:1,2013-12-02T07:30:00Z,30.3085,-88.1395,2.041,11.63,1111122 
DISL,ioos:station:DISL:CATA:1,2013-12-02T08:00:00Z,30.3085,-88.1395,2.001,11.46,1111122 
DISL,ioos:station:DISL:CATA:1,2013-12-02T08:30:00Z,30.3085,-88.1395,1.945,11.35,1111122 
DISL,ioos:station:DISL:CATA:1,2013-12-02T09:00:00Z,30.3085,-88.1395,1.886,11.17,1111122 
DISL,ioos:station:DISL:CATA:1,2013-12-02T09:30:00Z,30.3085,-88.1395,1.835,11.13,1111122 
DISL,ioos:station:DISL:CATA:1,2013-12-02T10:00:00Z,30.3085,-88.1395,1.801,11.16,1111122 
DISL,ioos:station:DISL:CATA:1,2013-12-02T10:30:00Z,30.3085,-88.1395,1.759,11.12,1111122 
DISL,ioos:station:DISL:CATA:1,2013-12-02T11:00:00Z,30.3085,-88.1395,1.727,11.01,1111122 
DISL,ioos:station:DISL:CATA:1,2013-12-02T11:30:00Z,30.3085,-88.1395,1.707,10.93,1111122 
DISL,ioos:station:DISL:CATA:1,2013-12-02T12:00:00Z,30.3085,-88.1395,1.693,10.84,1111122 
DISL,ioos:station:DISL:CATA:1,2013-12-02T12:30:00Z,30.3085,-88.1395,1.666,10.71,1111122 
DISL,ioos:station:DISL:CATA:1,2013-12-02T13:00:00Z,30.3085,-88.1395,1.665,10.68,1111122 
DISL,ioos:station:DISL:CATA:1,2013-12-02T13:30:00Z,30.3085,-88.1395,1.666,10.73,1111122 
DISL,ioos:station:DISL:CATA:1,2013-12-02T14:00:00Z,30.3085,-88.1395,1.674,10.8,1111122 
DISL,ioos:station:DISL:CATA:1,2013-12-02T14:30:00Z,30.3085,-88.1395,1.69,10.88,1111122 
DISL,ioos:station:DISL:CATA:1,2013-12-02T15:00:00Z,30.3085,-88.1395,1.716,10.99,1111122 
DISL,ioos:station:DISL:CATA:1,2013-12-02T15:30:00Z,30.3085,-88.1395,1.732,11.09,1111122 
DISL,ioos:station:DISL:CATA:1,2013-12-02T16:00:00Z,30.3085,-88.1395,1.758,11.18,1111122 
DISL,ioos:station:DISL:CATA:1,2013-12-02T16:30:00Z,30.3085,-88.1395,1.786,11.17,1111122 
DISL,ioos:station:DISL:CATA:1,2013-12-02T17:00:00Z,30.3085,-88.1395,1.828,11.39,1111122 
DISL,ioos:station:DISL:CATA:1,2013-12-02T17:30:00Z,30.3085,-88.1395,1.861,11.56,1111122 
DISL,ioos:station:DISL:CATA:1,2013-12-02T18:00:00Z,30.3085,-88.1395,1.892,11.7,1111122 
DISL,ioos:station:DISL:CATA:1,2013-12-02T18:30:00Z,30.3085,-88.1395,1.919,11.96,1111122 
DISL,ioos:station:DISL:CATA:1,2013-12-02T19:00:00Z,30.3085,-88.1395,1.951,12.03,1111122 
DISL,ioos:station:DISL:CATA:1,2013-12-02T19:30:00Z,30.3085,-88.1395,1.979,12.16,1111122 
DISL,ioos:station:DISL:CATA:1,2013-12-02T20:00:00Z,30.3085,-88.1395,2.016,12.2,1111122 
DISL,ioos:station:DISL:CATA:1,2013-12-02T20:30:00Z,30.3085,-88.1395,2.051,12.29,1111122 
DISL,ioos:station:DISL:CATA:1,2013-12-02T21:00:00Z,30.3085,-88.1395,2.091,12.54,1111122 
DISL,ioos:station:DISL:CATA:1,2013-12-02T21:30:00Z,30.3085,-88.1395,2.131,12.59,1111122 
DISL,ioos:station:DISL:CATA:1,2013-12-02T22:00:00Z,30.3085,-88.1395,2.185,12.42,1111122 
DISL,ioos:station:DISL:CATA:1,2013-12-02T22:30:00Z,30.3085,-88.1395,2.226,12.53,1111122 
DISL,ioos:station:DISL:CATA:1,2013-12-02T23:00:00Z,30.3085,-88.1395,2.27,12.5,1111122 
DISL,ioos:station:DISL:CATA:1,2013-12-02T23:30:00Z,30.3085,-88.1395,2.315,12.34,1111122 
DISL,ioos:station:DISL:CATA:1,2013-12-03T00:00:00Z,30.3085,-88.1395,2.363,12.36,1111122 
DISL,ioos:station:DISL:CATA:1,2013-12-03T00:30:00Z,30.3085,-88.1395,2.401,12.31,1111122 
DISL,ioos:station:DISL:CATA:1,2013-12-03T01:00:00Z,30.3085,-88.1395,2.44,12.3,1111122 
DISL,ioos:station:DISL:CATA:1,2013-12-03T01:30:00Z,30.3085,-88.1395,2.474,12.27,1111122 
DISL,ioos:station:DISL:CATA:1,2013-12-03T02:00:00Z,30.3085,-88.1395,2.499,12.2,1111122 
DISL,ioos:station:DISL:CATA:1,2013-12-03T02:30:00Z,30.3085,-88.1395,2.529,12.21,1111122 
DISL,ioos:station:DISL:CATA:1,2013-12-03T03:00:00Z,30.3085,-88.1395,2.531,12.25,1111122 
DISL,ioos:station:DISL:CATA:1,2013-12-03T03:30:00Z,30.3085,-88.1395,2.536,12.24,1111122 
DISL,ioos:station:DISL:CATA:1,2013-12-03T04:00:00Z,30.3085,-88.1395,2.537,12.19,1111122 
DISL,ioos:station:DISL:CATA:1,2013-12-03T04:30:00Z,30.3085,-88.1395,2.528,12.09,1111122 
DISL,ioos:station:DISL:CATA:1,2013-12-03T05:00:00Z,30.3085,-88.1395,2.513,12.02,1111122 
DISL,ioos:station:DISL:CATA:1,2013-12-03T05:30:00Z,30.3085,-88.1395,2.465,11.87,1111122 
DISL,ioos:station:DISL:CATA:1,2013-12-03T06:00:00Z,30.3085,-88.1395,2.432,11.73,1111122 
DISL,ioos:station:DISL:CATA:1,2013-12-03T06:30:00Z,30.3085,-88.1395,2.395,11.45,1111122 
DISL,ioos:station:DISL:CATA:1,2013-12-03T07:00:00Z,30.3085,-88.1395,2.354,11.31,1111122 
DISL,ioos:station:DISL:CATA:1,2013-12-03T07:30:00Z,30.3085,-88.1395,2.307,11.66,1111122 
DISL,ioos:station:DISL:CATA:1,2013-12-03T08:00:00Z,30.3085,-88.1395,2.267,11.74,1111122 
DISL,ioos:station:DISL:CATA:1,2013-12-03T08:30:00Z,30.3085,-88.1395,2.213,11.47,1111122 
DISL,ioos:station:DISL:CATA:1,2013-12-03T09:00:00Z,30.3085,-88.1395,2.166,11.17,1111122 
DISL,ioos:station:DISL:CATA:1,2013-12-03T09:30:00Z,30.3085,-88.1395,2.131,10.89,1111122 
DISL,ioos:station:DISL:CATA:1,2013-12-03T10:00:00Z,30.3085,-88.1395,2.084,10.84,1111122 
DISL,ioos:station:DISL:CATA:1,2013-12-03T10:30:00Z,30.3085,-88.1395,2.045,10.81,1111122 
DISL,ioos:station:DISL:CATA:1,2013-12-03T11:00:00Z,30.3085,-88.1395,2.001,10.69,1111122 
DISL,ioos:station:DISL:CATA:1,2013-12-03T11:30:00Z,30.3085,-88.1395,1.955,10.49,1111122 
DISL,ioos:station:DISL:CATA:1,2013-12-03T12:00:00Z,30.3085,-88.1395,1.916,10.62,1111122 
DISL,ioos:station:DISL:CATA:1,2013-12-03T12:30:00Z,30.3085,-88.1395,1.891,10.88,1111122 
DISL,ioos:station:DISL:CATA:1,2013-12-03T13:00:00Z,30.3085,-88.1395,1.861,11.08,1111122 
DISL,ioos:station:DISL:CATA:1,2013-12-03T13:30:00Z,30.3085,-88.1395,1.856,11.26,1111122 
DISL,ioos:station:DISL:CATA:1,2013-12-03T14:00:00Z,30.3085,-88.1395,1.846,11.3,1111122 
DISL,ioos:station:DISL:CATA:1,2013-12-03T14:30:00Z,30.3085,-88.1395,1.856,11.42,1111122 
DISL,ioos:station:DISL:CATA:1,2013-12-03T15:00:00Z,30.3085,-88.1395,1.865,11.33,1111122 
DISL,ioos:station:DISL:CATA:1,2013-12-03T15:30:00Z,30.3085,-88.1395,1.875,11.21,1111122 
DISL,ioos:station:DISL:CATA:1,2013-12-03T16:00:00Z,30.3085,-88.1395,1.889,11.16,1111122 
DISL,ioos:station:DISL:CATA:1,2013-12-03T16:30:00Z,30.3085,-88.1395,1.89,11.18,1111122 
DISL,ioos:station:DISL:CATA:1,2013-12-03T17:00:00Z,30.3085,-88.1395,1.901,11.22,1111122 
DISL,ioos:station:DISL:CATA:1,2013-12-03T17:30:00Z,30.3085,-88.1395,1.927,11.49,1111122 
DISL,ioos:station:DISL:CATA:1,2013-12-03T18:00:00Z,30.3085,-88.1395,1.97,12.48,1111122 
DISL,ioos:station:DISL:CATA:1,2013-12-03T18:30:00Z,30.3085,-88.1395,2.017,12.96,1111122 
DISL,ioos:station:DISL:CATA:1,2013-12-03T19:00:00Z,30.3085,-88.1395,2.037,13.24,1111122 
DISL,ioos:station:DISL:CATA:1,2013-12-03T19:30:00Z,30.3085,-88.1395,2.058,13.26,1111122 
DISL,ioos:station:DISL:CATA:1,2013-12-03T20:00:00Z,30.3085,-88.1395,2.088,13.46,1111122 
DISL,ioos:station:DISL:CATA:1,2013-12-03T20:30:00Z,30.3085,-88.1395,2.124,13.52,1111122 
DISL,ioos:station:DISL:CATA:1,2013-12-03T21:00:00Z,30.3085,-88.1395,2.154,13.44,1111122 
DISL,ioos:station:DISL:CATA:1,2013-12-03T21:30:00Z,30.3085,-88.1395,2.179,13.29,1111122 
DISL,ioos:station:DISL:CATA:1,2013-12-03T22:00:00Z,30.3085,-88.1395,2.211,13.09,1111122 
DISL,ioos:station:DISL:CATA:1,2013-12-03T22:30:00Z,30.3085,-88.1395,2.238,12.81,1111122 
DISL,ioos:station:DISL:CATA:1,2013-12-03T23:00:00Z,30.3085,-88.1395,2.277,12.54,1111122 
DISL,ioos:station:DISL:CATA:1,2013-12-03T23:30:00Z,30.3085,-88.1395,2.295,12.52,1111122 
DISL,ioos:station:DISL:CATA:1,2013-12-04T00:00:00Z,30.3085,-88.1395,2.352,12.14,1111122 
DISL,ioos:station:DISL:CATA:1,2013-12-04T00:30:00Z,30.3085,-88.1395,2.387,12.14,1111122 
DISL,ioos:station:DISL:CATA:1,2013-12-04T01:00:00Z,30.3085,-88.1395,2.421,12.14,1111122 
DISL,ioos:station:DISL:CATA:1,2013-12-04T01:30:00Z,30.3085,-88.1395,2.46,12.09,1111122 
DISL,ioos:station:DISL:CATA:1,2013-12-04T02:00:00Z,30.3085,-88.1395,2.498,11.95,1111122 
DISL,ioos:station:DISL:CATA:1,2013-12-04T02:30:00Z,30.3085,-88.1395,2.517,11.59,1111122 
DISL,ioos:station:DISL:CATA:1,2013-12-04T03:00:00Z,30.3085,-88.1395,2.532,11.7,1111122 
DISL,ioos:station:DISL:CATA:1,2013-12-04T03:30:00Z,30.3085,-88.1395,2.55,11.65,1111122 
DISL,ioos:station:DISL:CATA:1,2013-12-04T04:00:00Z,30.3085,-88.1395,2.564,11.78,1111122 
DISL,ioos:station:DISL:CATA:1,2013-12-04T04:30:00Z,30.3085,-88.1395,2.567,11.87,1111122 
DISL,ioos:station:DISL:CATA:1,2013-12-04T05:00:00Z,30.3085,-88.1395,2.556,11.96,1111122 
DISL,ioos:station:DISL:CATA:1,2013-12-04T05:30:00Z,30.3085,-88.1395,2.533,11.97,1111122 
DISL,ioos:station:DISL:CATA:1,2013-12-04T06:00:00Z,30.3085,-88.1395,2.509,11.97,1111122 
DISL,ioos:station:DISL:CATA:1,2013-12-04T06:30:00Z,30.3085,-88.1395,2.474,11.97,1111122 
DISL,ioos:station:DISL:CATA:1,2013-12-04T07:00:00Z,30.3085,-88.1395,2.438,11.75,1111122 
DISL,ioos:station:DISL:CATA:1,2013-12-04T07:30:00Z,30.3085,-88.1395,2.402,11.8,1111122 
DISL,ioos:station:DISL:CATA:1,2013-12-04T08:00:00Z,30.3085,-88.1395,2.343,11.54,1111122 
DISL,ioos:station:DISL:CATA:1,2013-12-04T08:30:00Z,30.3085,-88.1395,2.301,11.48,1111122 
DISL,ioos:station:DISL:CATA:1,2013-12-04T09:00:00Z,30.3085,-88.1395,2.256,11.3,1111122 
DISL,ioos:station:DISL:CATA:1,2013-12-04T09:30:00Z,30.3085,-88.1395,2.195,11.15,1111122 
DISL,ioos:station:DISL:CATA:1,2013-12-04T10:00:00Z,30.3085,-88.1395,2.151,10.91,1111122 
DISL,ioos:station:DISL:CATA:1,2013-12-04T10:30:00Z,30.3085,-88.1395,2.108,10.63,1111122 
DISL,ioos:station:DISL:CATA:1,2013-12-04T11:00:00Z,30.3085,-88.1395,2.066,10.59,1111122 
DISL,ioos:station:DISL:CATA:1,2013-12-04T11:30:00Z,30.3085,-88.1395,2.008,10.89,1111122 
DISL,ioos:station:DISL:CATA:1,2013-12-04T12:00:00Z,30.3085,-88.1395,1.957,11.59,1111122 
DISL,ioos:station:DISL:CATA:1,2013-12-04T12:30:00Z,30.3085,-88.1395,1.928,11.38,1111122 
DISL,ioos:station:DISL:CATA:1,2013-12-04T13:00:00Z,30.3085,-88.1395,1.905,11.45,1111122 
DISL,ioos:station:DISL:CATA:1,2013-12-04T13:30:00Z,30.3085,-88.1395,1.882,11.47,1111122 
DISL,ioos:station:DISL:CATA:1,2013-12-04T14:00:00Z,30.3085,-88.1395,1.857,11.58,1111122 
DISL,ioos:station:DISL:CATA:1,2013-12-04T14:30:00Z,30.3085,-88.1395,1.864,11.78,1111122 
DISL,ioos:station:DISL:CATA:1,2013-12-04T15:00:00Z,30.3085,-88.1395,1.867,12.08,1111122 
DISL,ioos:station:DISL:CATA:1,2013-12-04T15:30:00Z,30.3085,-88.1395,1.876,12.45,1111122 
DISL,ioos:station:DISL:CATA:1,2013-12-04T16:00:00Z,30.3085,-88.1395,1.887,12.73,1111122 
DISL,ioos:station:DISL:CATA:1,2013-12-04T16:30:00Z,30.3085,-88.1395,1.903,12.76,1111122 
DISL,ioos:station:DISL:CATA:1,2013-12-04T17:00:00Z,30.3085,-88.1395,1.911,12.79,1111122 
DISL,ioos:station:DISL:CATA:1,2013-12-04T17:30:00Z,30.3085,-88.1395,1.919,12.84,1111122 
DISL,ioos:station:DISL:CATA:1,2013-12-04T18:00:00Z,30.3085,-88.1395,1.935,12.83,1111122 
DISL,ioos:station:DISL:CATA:1,2013-12-04T18:30:00Z,30.3085,-88.1395,1.968,13.01,1111122 
DISL,ioos:station:DISL:CATA:1,2013-12-04T19:00:00Z,30.3085,-88.1395,2.004,13.67,1111122 
DISL,ioos:station:DISL:CATA:1,2013-12-04T19:30:00Z,30.3085,-88.1395,2.044,14.19,1111122 
DISL,ioos:station:DISL:CATA:1,2013-12-04T20:00:00Z,30.3085,-88.1395,2.061,14.25,1111122 
DISL,ioos:station:DISL:CATA:1,2013-12-04T20:30:00Z,30.3085,-88.1395,2.091,14.37,1111122 
DISL,ioos:station:DISL:CATA:1,2013-12-04T21:00:00Z,30.3085,-88.1395,2.113,13.59,1111122 
DISL,ioos:station:DISL:CATA:1,2013-12-04T21:30:00Z,30.3085,-88.1395,2.139,13.15,1111122 
DISL,ioos:station:DISL:CATA:1,2013-12-04T22:00:00Z,30.3085,-88.1395,2.174,13.23,1111122 
DISL,ioos:station:DISL:CATA:1,2013-12-04T22:30:00Z,30.3085,-88.1395,2.208,13.18,1111122 
DISL,ioos:station:DISL:CATA:1,2013-12-04T23:00:00Z,30.3085,-88.1395,2.236,12.9,1111122 
DISL,ioos:station:DISL:CATA:1,2013-12-04T23:30:00Z,30.3085,-88.1395,2.277,12.57,1111122 
DISL,ioos:station:DISL:CATA:1,2013-12-05T00:00:00Z,30.3085,-88.1395,2.319,12.52,1111122 
DISL,ioos:station:DISL:CATA:1,2013-12-05T00:30:00Z,30.3085,-88.1395,2.363,12.36,1111122 
DISL,ioos:station:DISL:CATA:1,2013-12-05T01:00:00Z,30.3085,-88.1395,2.407,12.28,1111122 
DISL,ioos:station:DISL:CATA:1,2013-12-05T01:30:00Z,30.3085,-88.1395,2.442,12.25,1111122 
DISL,ioos:station:DISL:CATA:1,2013-12-05T02:00:00Z,30.3085,-88.1395,2.491,12.13,1111122 
DISL,ioos:station:DISL:CATA:1,2013-12-05T02:30:00Z,30.3085,-88.1395,2.508,11.92,1111122 
DISL,ioos:station:DISL:CATA:1,2013-12-05T03:00:00Z,30.3085,-88.1395,2.543,11.84,1111122 
DISL,ioos:station:DISL:CATA:1,2013-12-05T03:30:00Z,30.3085,-88.1395,2.571,11.8,1111122 
DISL,ioos:station:DISL:CATA:1,2013-12-05T04:00:00Z,30.3085,-88.1395,2.598,11.65,1111122 
DISL,ioos:station:DISL:CATA:1,2013-12-05T04:30:00Z,30.3085,-88.1395,2.597,11.66,1111122 
DISL,ioos:station:DISL:CATA:1,2013-12-05T05:00:00Z,30.3085,-88.1395,2.595,11.71,1111122 
DISL,ioos:station:DISL:CATA:1,2013-12-05T05:30:00Z,30.3085,-88.1395,2.598,11.7,1111122 
DISL,ioos:station:DISL:CATA:1,2013-12-05T06:00:00Z,30.3085,-88.1395,2.579,11.57,1111122 
DISL,ioos:station:DISL:CATA:1,2013-12-05T06:30:00Z,30.3085,-88.1395,2.552,11.55,1111122 
DISL,ioos:station:DISL:CATA:1,2013-12-05T07:00:00Z,30.3085,-88.1395,2.533,11.12,1111122 
DISL,ioos:station:DISL:CATA:1,2013-12-05T07:30:00Z,30.3085,-88.1395,2.51,10.74,1111122 
DISL,ioos:station:DISL:CATA:1,2013-12-05T08:00:00Z,30.3085,-88.1395,2.469,10.99,1111122 
DISL,ioos:station:DISL:CATA:1,2013-12-05T08:30:00Z,30.3085,-88.1395,2.425,11.31,1111122 
DISL,ioos:station:DISL:CATA:1,2013-12-05T09:00:00Z,30.3085,-88.1395,2.383,11.7,1111122 
DISL,ioos:station:DISL:CATA:1,2013-12-05T09:30:00Z,30.3085,-88.1395,2.329,11.53,1111122 
DISL,ioos:station:DISL:CATA:1,2013-12-05T10:00:00Z,30.3085,-88.1395,2.275,11.52,1111122 
DISL,ioos:station:DISL:CATA:1,2013-12-05T10:30:00Z,30.3085,-88.1395,2.231,11.3,1111122 
DISL,ioos:station:DISL:CATA:1,2013-12-05T11:00:00Z,30.3085,-88.1395,2.178,11.34,1111122 
DISL,ioos:station:DISL:CATA:1,2013-12-05T11:30:00Z,30.3085,-88.1395,2.133,11.22,1111122 
DISL,ioos:station:DISL:CATA:1,2013-12-05T12:00:00Z,30.3085,-88.1395,2.094,11.21,1111122 
DISL,ioos:station:DISL:CATA:1,2013-12-05T12:30:00Z,30.3085,-88.1395,2.042,11.27,1111122 
DISL,ioos:station:DISL:CATA:1,2013-12-05T13:00:00Z,30.3085,-88.1395,2.006,11.3,1111122 
DISL,ioos:station:DISL:CATA:1,2013-12-05T13:30:00Z,30.3085,-88.1395,1.979,11.37,1111122 
DISL,ioos:station:DISL:CATA:1,2013-12-05T14:00:00Z,30.3085,-88.1395,1.948,11.59,1111122 
DISL,ioos:station:DISL:CATA:1,2013-12-05T14:30:00Z,30.3085,-88.1395,1.928,11.62,1111122 
DISL,ioos:station:DISL:CATA:1,2013-12-05T15:00:00Z,30.3085,-88.1395,1.925,11.86,1111122 
DISL,ioos:station:DISL:CATA:1,2013-12-05T15:30:00Z,30.3085,-88.1395,1.916,12.01,1111122 
DISL,ioos:station:DISL:CATA:1,2013-12-05T16:00:00Z,30.3085,-88.1395,1.92,11.96,1111122 
DISL,ioos:station:DISL:CATA:1,2013-12-05T16:30:00Z,30.3085,-88.1395,1.923,12.08,1111122 
DISL,ioos:station:DISL:CATA:1,2013-12-05T17:00:00Z,30.3085,-88.1395,1.934,12.16,1111122 
DISL,ioos:station:DISL:CATA:1,2013-12-05T17:30:00Z,30.3085,-88.1395,1.954,12.26,1111122 
DISL,ioos:station:DISL:CATA:1,2013-12-05T18:00:00Z,30.3085,-88.1395,1.966,12.38,1111122 
DISL,ioos:station:DISL:CATA:1,2013-12-05T18:30:00Z,30.3085,-88.1395,1.977,12.5,1111122 
DISL,ioos:station:DISL:CATA:1,2013-12-05T19:00:00Z,30.3085,-88.1395,2.0,12.55,1111122 
DISL,ioos:station:DISL:CATA:1,2013-12-05T19:30:00Z,30.3085,-88.1395,2.022,12.43,1111122 
DISL,ioos:station:DISL:CATA:1,2013-12-05T20:00:00Z,30.3085,-88.1395,2.042,12.67,1111122 
DISL,ioos:station:DISL:CATA:1,2013-12-05T20:30:00Z,30.3085,-88.1395,2.067,12.76,1111122 
DISL,ioos:station:DISL:CATA:1,2013-12-05T21:00:00Z,30.3085,-88.1395,2.104,12.82,1111122 
DISL,ioos:station:DISL:CATA:1,2013-12-05T21:30:00Z,30.3085,-88.1395,2.136,12.92,1111122 
DISL,ioos:station:DISL:CATA:1,2013-12-05T22:00:00Z,30.3085,-88.1395,2.159,12.9,1111122 
DISL,ioos:station:DISL:CATA:1,2013-12-05T22:30:00Z,30.3085,-88.1395,2.189,12.83,1111122 
DISL,ioos:station:DISL:CATA:1,2013-12-05T23:00:00Z,30.3085,-88.1395,2.212,12.69,1111122 
DISL,ioos:station:DISL:CATA:1,2013-12-05T23:30:00Z,30.3085,-88.1395,2.237,12.54,1111122 
DISL,ioos:station:DISL:CATA:1,2013-12-06T00:00:00Z,30.3085,-88.1395,2.263,12.53,1111122 
DISL,ioos:station:DISL:CATA:1,2013-12-06T00:30:00Z,30.3085,-88.1395,2.29,12.55,1111122 
DISL,ioos:station:DISL:CATA:1,2013-12-06T01:00:00Z,30.3085,-88.1395,2.329,12.27,1111122 
DISL,ioos:station:DISL:CATA:1,2013-12-06T01:30:00Z,30.3085,-88.1395,2.367,12.13,1111122 
DISL,ioos:station:DISL:CATA:1,2013-12-06T02:00:00Z,30.3085,-88.1395,2.396,11.95,1111122 
DISL,ioos:station:DISL:CATA:1,2013-12-06T02:30:00Z,30.3085,-88.1395,2.431,11.77,1111122 
DISL,ioos:station:DISL:CATA:1,2013-12-06T03:00:00Z,30.3085,-88.1395,2.472,11.66,1111122 
DISL,ioos:station:DISL:CATA:1,2013-12-06T03:30:00Z,30.3085,-88.1395,2.506,11.63,1111122 
DISL,ioos:station:DISL:CATA:1,2013-12-06T04:00:00Z,30.3085,-88.1395,2.547,11.34,1111122 
DISL,ioos:station:DISL:CATA:1,2013-12-06T04:30:00Z,30.3085,-88.1395,2.581,11.31,1111122 
DISL,ioos:station:DISL:CATA:1,2013-12-06T05:00:00Z,30.3085,-88.1395,2.585,11.23,1111122 
DISL,ioos:station:DISL:CATA:1,2013-12-06T05:30:00Z,30.3085,-88.1395,2.594,11.2,1111122 
DISL,ioos:station:DISL:CATA:1,2013-12-06T06:00:00Z,30.3085,-88.1395,2.589,11.19,1111122 
DISL,ioos:station:DISL:CATA:1,2013-12-06T06:30:00Z,30.3085,-88.1395,2.583,11.11,1111122 
DISL,ioos:station:DISL:CATA:1,2013-12-06T07:00:00Z,30.3085,-88.1395,2.563,11.09,1111122 
DISL,ioos:station:DISL:CATA:1,2013-12-06T07:30:00Z,30.3085,-88.1395,2.543,10.94,1111122 
DISL,ioos:station:DISL:CATA:1,2013-12-06T08:00:00Z,30.3085,-88.1395,2.52,10.83,1111122 
DISL,ioos:station:DISL:CATA:1,2013-12-06T08:30:00Z,30.3085,-88.1395,2.5,10.83,1111122 
DISL,ioos:station:DISL:CATA:1,2013-12-06T09:00:00Z,30.3085,-88.1395,2.478,10.9,1111122 
DISL,ioos:station:DISL:CATA:1,2013-12-06T09:30:00Z,30.3085,-88.1395,2.451,10.98,1111122 
DISL,ioos:station:DISL:CATA:1,2013-12-06T10:00:00Z,30.3085,-88.1395,2.423,10.97,1111122 
DISL,ioos:station:DISL:CATA:1,2013-12-06T10:30:00Z,30.3085,-88.1395,2.388,10.94,1111122 
DISL,ioos:station:DISL:CATA:1,2013-12-06T11:00:00Z,30.3085,-88.1395,2.344,10.93,1111122 
DISL,ioos:station:DISL:CATA:1,2013-12-06T11:30:00Z,30.3085,-88.1395,2.298,10.97,1111122 
DISL,ioos:station:DISL:CATA:1,2013-12-06T12:00:00Z,30.3085,-88.1395,2.25,10.8,1111122 
DISL,ioos:station:DISL:CATA:1,2013-12-06T12:30:00Z,30.3085,-88.1395,2.202,10.76,1111122 
DISL,ioos:station:DISL:CATA:1,2013-12-06T13:00:00Z,30.3085,-88.1395,2.151,10.67,1111122 
DISL,ioos:station:DISL:CATA:1,2013-12-06T13:30:00Z,30.3085,-88.1395,2.115,10.51,1111122 
DISL,ioos:station:DISL:CATA:1,2013-12-06T14:00:00Z,30.3085,-88.1395,2.074,10.54,1111122 